FW2998 Weather Reports


time (UTC)temp
C
wind
direction
speed
KPH
gust
KPH
rain 1hr
cm
rain 24hr
cm
rain mn
cm
humidity
%
barometer
mb
20260904201020 35 0 0.0 0.0 0.00 0.00 0.00 55 1015.0
20260904200524 35 0 0.0 0.0 0.00 0.00 0.00 56 1015.1
20260904200121 34 0 0.0 0.0 0.00 0.00 0.00 54 1015.1
20260904195526 35 0 0.0 0.0 0.00 0.00 0.00 54 1015.2
20260904195019 34 0 0.0 0.0 0.00 0.00 0.00 56 1015.2
20260904194600 35 0 0.0 0.0 0.00 0.00 0.00 55 1015.4
20260904194023 35 0 0.0 0.0 0.00 0.00 0.00 54 1015.5
20260904193522 35 0 0.0 0.0 0.00 0.00 0.00 54 1015.5
20260904193043 35 0 0.0 0.0 0.00 0.00 0.00 55 1015.5
20260904192522 35 0 0.0 0.0 0.00 0.00 0.00 57 1015.5
20260904192027 34 0 0.0 0.0 0.00 0.00 0.00 54 1015.5
20260904191547 34 0 0.0 0.0 0.00 0.00 0.00 56 1015.6
20260904191021 34 0 0.0 0.0 0.00 0.00 0.00 57 1015.6
20260904190524 34 0 0.0 0.0 0.00 0.00 0.00 57 1015.8
20260904190046 34 0 0.0 0.0 0.00 0.00 0.00 58 1015.9
20260904185518 34 0 0.0 0.0 0.00 0.00 0.00 60 1015.9
20260904185021 34 0 0.0 0.0 0.00 0.00 0.00 57 1016.2
20260904184544 34 0 0.0 0.0 0.00 0.00 0.00 60 1016.2
20260904184024 33 0 0.0 0.0 0.00 0.00 0.00 61 1016.3
20260904183522 33 0 0.0 0.0 0.00 0.00 0.00 61 1016.3
20260904183043 33 0 0.0 0.0 0.00 0.00 0.00 61 1016.4
20260904182521 34 0 0.0 0.0 0.00 0.00 0.00 64 1016.4
20260904182028 33 0 0.0 0.0 0.00 0.00 0.00 61 1016.4
20260904181543 33 0 0.0 0.0 0.00 0.00 0.00 63 1016.5
20260904181024 33 0 0.0 0.0 0.00 0.00 0.00 63 1016.6
20260904180526 33 0 0.0 0.0 0.00 0.00 0.00 63 1016.6
20260904180044 33 0 0.0 0.0 0.00 0.00 0.00 64 1016.6
20260904175521 33 0 0.0 0.0 0.00 0.00 0.00 62 1016.7
20260904175025 33 0 0.0 0.0 0.00 0.00 0.00 62 1016.8
20260904174547 33 0 0.0 0.0 0.00 0.00 0.00 64 1016.7
20260904174025 33 0 0.0 0.0 0.00 0.00 0.00 64 1016.8
20260904173523 33 0 0.0 0.0 0.00 0.00 0.00 65 1016.8
20260904173102 33 0 0.0 0.0 0.00 0.00 0.00 66 1016.9
20260904172520 33 0 0.0 0.0 0.00 0.00 0.00 63 1017.0
20260904172019 33 0 0.0 0.0 0.00 0.00 0.00 65 1017.0
20260904171555 32 0 0.0 0.0 0.00 0.00 0.00 67 1017.0
20260904171022 32 0 0.0 0.0 0.00 0.00 0.00 65 1017.1
20260904170525 32 0 0.0 0.0 0.00 0.00 0.00 66 1017.1
20260904170045 32 0 0.0 0.0 0.00 0.00 0.00 66 1017.1
20260904165618 32 0 0.0 0.0 0.00 0.00 0.00 69 1017.1
20260904165023 32 0 0.0 0.0 0.00 0.00 0.00 69 1017.3
20260904164548 32 0 0.0 0.0 0.00 0.00 0.00 68 1017.4
20260904164025 32 0 0.0 0.0 0.00 0.00 0.00 68 1017.5
20260904163524 32 0 0.0 0.0 0.00 0.00 0.00 68 1017.5
20260904163046 32 0 0.0 0.0 0.00 0.00 0.00 69 1017.6
20260904162522 31 0 0.0 0.0 0.00 0.00 0.00 67 1017.6
20260904162019 31 0 0.0 0.0 0.00 0.00 0.00 68 1017.8
20260904161544 31 0 0.0 0.0 0.00 0.00 0.00 69 1017.9
20260904161022 31 0 0.0 0.0 0.00 0.00 0.00 70 1018.0
20260904160524 31 0 0.0 0.0 0.00 0.00 0.00 72 1018.0
20260904160044 31 0 0.0 0.0 0.00 0.00 0.00 71 1018.0
20260904155525 31 0 0.0 0.0 0.00 0.00 0.00 71 1018.1
20260904155022 31 0 0.0 0.0 0.00 0.00 0.00 74 1018.1
20260904154542 31 0 0.0 0.0 0.00 0.00 0.00 74 1018.1
20260904154029 31 0 0.0 0.0 0.00 0.00 0.00 75 1018.1
20260904153525 30 0 0.0 0.0 0.00 0.00 0.00 74 1018.1
20260904153047 30 0 0.0 0.0 0.00 0.00 0.00 73 1018.1
20260904152520 30 0 0.0 0.0 0.00 0.00 0.00 75 1018.2
20260904152023 31 0 0.0 0.0 0.00 0.00 0.00 76 1018.1
20260904151544 31 0 0.0 0.0 0.00 0.00 0.00 75 1018.2
20260904151023 30 0 0.0 0.0 0.00 0.00 0.00 77 1018.2
20260904150523 30 0 0.0 0.0 0.00 0.00 0.00 79 1018.2
20260904145523 29 0 0.0 0.0 0.00 0.00 0.00 80 1018.2
20260904145027 28 0 0.0 0.0 0.00 0.00 0.00 80 1018.2
20260904144541 28 0 0.0 0.0 0.00 0.00 0.00 81 1018.2
20260904144024 28 0 0.0 0.0 0.00 0.00 0.00 81 1018.1
20260904143524 28 0 0.0 0.0 0.00 0.00 0.00 81 1018.1
20260904143046 28 0 0.0 0.0 0.00 0.00 0.00 81 1018.1
20260904142522 28 0 0.0 0.0 0.00 0.00 0.00 82 1018.1
20260904142019 28 0 0.0 0.0 0.00 0.00 0.00 81 1018.1
20260904141546 28 0 0.0 0.0 0.00 0.00 0.00 81 1018.1
20260904141022 28 0 0.0 0.0 0.00 0.00 0.00 82 1018.3
20260904140521 28 0 0.0 0.0 0.00 0.00 0.00 83 1018.2
20260904140044 28 0 0.0 0.0 0.00 0.00 0.00 85 1018.2
20260904135524 28 0 0.0 0.0 0.00 0.00 0.00 87 1018.1
20260904135025 28 0 0.0 0.0 0.00 0.00 0.00 89 1018.0
20260904134553 27 0 0.0 0.0 0.00 0.00 0.00 92 1018.0
20260904134024 27 0 0.0 0.0 0.00 0.00 0.00 94 1018.0
20260904133518 26 0 0.0 0.0 0.00 0.00 0.00 94 1018.1
20260904133044 26 0 0.0 0.0 0.00 0.00 0.00 94 1018.1
20260904132522 26 0 0.0 0.0 0.00 0.00 0.00 95 1018.1
20260904132018 26 0 0.0 0.0 0.00 0.00 0.00 95 1018.2
20260904131544 25 0 0.0 0.0 0.00 0.00 0.00 95 1018.2
20260904131022 25 0 0.0 0.0 0.00 0.00 0.00 95 1018.2
20260904130524 25 0 0.0 0.0 0.00 0.00 0.00 96 1018.1
20260904130044 25 0 0.0 0.0 0.00 0.00 0.00 96 1018.3
20260904125523 25 0 0.0 0.0 0.00 0.00 0.00 96 1018.1
20260904125025 25 0 0.0 0.0 0.00 0.00 0.00 95 1018.2
20260904124548 25 0 0.0 0.0 0.00 0.00 0.00 95 1018.1
20260904124027 25 0 0.0 0.0 0.00 0.00 0.00 95 1018.1
20260904123524 24 0 0.0 0.0 0.00 0.00 0.00 95 1018.2
20260904123044 24 0 0.0 0.0 0.00 0.00 0.00 96 1018.2
20260904122525 23 0 0.0 0.0 0.00 0.00 0.00 95 1018.2
20260904122025 23 0 0.0 0.0 0.00 0.00 0.00 95 1018.2
20260904121543 23 0 0.0 0.0 0.00 0.00 0.00 94 1018.2
20260904121020 23 0 0.0 0.0 0.00 0.00 0.00 94 1018.3
20260904120520 23 0 0.0 0.0 0.00 0.00 0.00 94 1018.1
20260904120052 23 0 0.0 0.0 0.00 0.00 0.00 94 1018.0
20260904115530 23 0 0.0 0.0 0.00 0.00 0.00 94 1018.0
20260904115021 23 0 0.0 0.0 0.00 0.00 0.00 93 1018.1
20260904114547 23 0 0.0 0.0 0.00 0.00 0.00 93 1018.0
20260904114022 23 0 0.0 0.0 0.00 0.00 0.00 93 1018.0
20260904113525 23 0 0.0 0.0 0.00 0.00 0.00 92 1017.9
20260904113044 23 0 0.0 0.0 0.00 0.00 0.00 92 1017.8
20260904112524 23 0 0.0 0.0 0.00 0.00 0.00 92 1017.7
20260904112025 23 0 0.0 0.0 0.00 0.00 0.00 92 1017.7
20260904111543 23 0 0.0 0.0 0.00 0.00 0.00 92 1017.7
20260904111023 23 0 0.0 0.0 0.00 0.00 0.00 92 1017.6
20260904110524 23 0 0.0 0.0 0.00 0.00 0.00 92 1017.6
20260904110046 23 0 0.0 0.0 0.00 0.00 0.00 92 1017.6
20260904105525 23 0 0.0 0.0 0.00 0.00 0.00 92 1017.6
20260904105019 23 0 0.0 0.0 0.00 0.00 0.00 92 1017.6
20260904104543 23 0 0.0 0.0 0.00 0.00 0.00 92 1017.5
20260904104022 23 0 0.0 0.0 0.00 0.00 0.00 92 1017.4
20260904103521 23 0 0.0 0.0 0.00 0.00 0.00 92 1017.3
20260904103043 23 0 0.0 0.0 0.00 0.00 0.00 91 1017.3
20260904102522 23 0 0.0 0.0 0.00 0.00 0.00 91 1017.3
20260904102021 23 0 0.0 0.0 0.00 0.00 0.00 91 1017.3
20260904101544 23 0 0.0 0.0 0.00 0.00 0.00 91 1017.3
20260904101020 23 0 0.0 0.0 0.00 0.00 0.00 91 1017.3
20260904100520 23 0 0.0 0.0 0.00 0.00 0.00 91 1017.3
20260904100050 23 0 0.0 0.0 0.00 0.00 0.00 91 1017.2
20260904095526 23 0 0.0 0.0 0.00 0.00 0.00 91 1017.1
20260904095023 23 0 0.0 0.0 0.00 0.00 0.00 91 1017.1
20260904094545 23 0 0.0 0.0 0.00 0.00 0.00 91 1017.1
20260904094021 23 0 0.0 0.0 0.00 0.00 0.00 91 1017.0
20260904093521 23 0 0.0 0.0 0.00 0.00 0.00 91 1016.9
20260904093043 23 0 0.0 0.0 0.00 0.00 0.00 90 1017.0
20260904092521 23 0 0.0 0.0 0.00 0.00 0.00 90 1017.0
20260904092024 23 0 0.0 0.0 0.00 0.00 0.00 90 1016.8
20260904091543 23 0 0.0 0.0 0.00 0.00 0.00 90 1016.8
20260904091020 23 0 0.0 0.0 0.00 0.00 0.00 90 1016.9
20260904090523 23 0 0.0 0.0 0.00 0.00 0.00 90 1016.8
20260904090043 23 0 0.0 0.0 0.00 0.00 0.00 90 1016.6
20260904085523 23 0 0.0 0.0 0.00 0.00 0.00 90 1016.7
20260904085023 23 0 0.0 0.0 0.00 0.00 0.00 90 1016.8
20260904084543 23 0 0.0 0.0 0.00 0.00 0.00 89 1016.7
20260904084020 23 0 0.0 0.0 0.00 0.00 0.00 89 1016.7
20260904083520 23 0 0.0 0.0 0.00 0.00 0.00 89 1016.7
20260904083048 23 0 0.0 0.0 0.00 0.00 0.00 89 1016.6
20260904082526 23 0 0.0 0.0 0.00 0.00 0.00 89 1016.5
20260904082027 23 0 0.0 0.0 0.00 0.00 0.00 89 1016.5
20260904081543 23 0 0.0 0.0 0.00 0.00 0.00 89 1016.6
20260904081024 24 0 0.0 0.0 0.00 0.00 0.00 89 1016.4
20260904080525 24 0 0.0 0.0 0.00 0.00 0.00 89 1016.4
20260904080045 24 0 0.0 0.0 0.00 0.00 0.00 89 1016.4
20260904075522 24 0 0.0 0.0 0.00 0.00 0.00 88 1016.4
20260904075023 24 0 0.0 0.0 0.00 0.00 0.00 88 1016.4
20260904074545 24 0 0.0 0.0 0.00 0.00 0.00 88 1016.5
20260904074021 24 0 0.0 0.0 0.00 0.00 0.00 88 1016.5
20260904073522 24 0 0.0 0.0 0.00 0.00 0.00 88 1016.5
20260904073048 24 0 0.0 0.0 0.00 0.00 0.00 88 1016.4
20260904072523 24 0 0.0 0.0 0.00 0.00 0.00 88 1016.4
20260904072027 24 0 0.0 0.0 0.00 0.00 0.00 88 1016.5
20260904071543 24 0 0.0 0.0 0.00 0.00 0.00 88 1016.6
20260904071024 24 0 0.0 0.0 0.00 0.00 0.00 88 1016.6
20260904070523 25 0 0.0 0.0 0.00 0.00 0.00 87 1016.7
20260904070047 25 0 0.0 0.0 0.00 0.00 0.00 87 1016.7
20260904065523 25 0 0.0 0.0 0.00 0.00 0.00 87 1016.7
20260904065026 25 0 0.0 0.0 0.00 0.00 0.00 87 1016.9
20260904064543 25 0 0.0 0.0 0.00 0.00 0.00 87 1016.9
20260904064024 25 0 0.0 0.0 0.00 0.00 0.00 86 1016.8
20260904063522 25 0 0.0 0.0 0.00 0.00 0.00 86 1016.9
20260904063043 25 0 0.0 0.0 0.00 0.00 0.00 86 1017.0
20260904062523 25 0 0.0 0.0 0.00 0.00 0.00 86 1017.1
20260904062023 25 0 0.0 0.0 0.00 0.00 0.00 85 1017.2
20260904061543 25 0 0.0 0.0 0.00 0.00 0.00 85 1017.2
20260904061024 25 0 0.0 0.0 0.00 0.00 0.00 85 1017.2
20260904060524 25 0 0.0 0.0 0.00 0.00 0.00 85 1017.3
20260904060045 25 0 0.0 0.0 0.00 0.00 0.00 85 1017.3
20260904055523 25 0 0.0 0.0 0.00 0.00 0.00 85 1017.3
20260904055024 25 0 0.0 0.0 0.00 0.00 0.00 85 1017.3
20260904054546 25 0 0.0 0.0 0.00 0.00 0.00 84 1017.5
20260904054023 25 0 0.0 0.0 0.00 0.00 0.00 84 1017.5
20260904053522 25 0 0.0 0.0 0.00 0.00 0.00 84 1017.5
20260904053044 25 0 0.0 0.0 0.00 0.00 0.00 84 1017.6
20260904052525 25 0 0.0 0.0 0.00 0.00 0.00 84 1017.7
20260904052024 25 0 0.0 0.0 0.00 0.00 0.00 83 1017.7
20260904051546 26 0 0.0 0.0 0.00 0.00 0.00 83 1017.8
20260904051023 26 0 0.0 0.0 0.00 0.00 0.00 83 1017.8
20260904050521 26 0 0.0 0.0 0.00 0.00 0.00 83 1017.8
20260904050043 26 0 0.0 0.0 0.00 0.00 0.00 83 1017.9
20260904045523 26 0 0.0 0.0 0.00 0.00 0.00 82 1017.9
20260904045023 26 0 0.0 0.0 0.00 0.00 0.00 82 1017.9
20260904044542 26 0 0.0 0.0 0.00 0.00 0.00 82 1018.0
20260904044025 26 0 0.0 0.0 0.00 0.00 0.00 82 1018.0
20260904043522 26 0 0.0 0.0 0.00 0.00 0.00 82 1018.0
20260904043047 26 0 0.0 0.0 0.00 0.00 0.00 81 1018.0
20260904042523 26 0 0.0 0.0 0.00 0.00 0.00 81 1018.0
20260904042024 26 0 0.0 0.0 0.00 0.00 0.00 81 1017.9
20260904041546 26 0 0.0 0.0 0.00 0.00 0.00 80 1017.9
20260904041023 26 0 0.0 0.0 0.00 0.00 0.00 80 1018.0
20260904040524 27 0 0.0 0.0 0.00 0.00 0.00 80 1017.9
20260904040046 27 0 0.0 0.0 0.00 0.00 0.00 81 1018.0
20260904035525 27 0 0.0 0.0 0.00 0.00 0.00 80 1018.0
20260904035021 27 0 0.0 0.0 0.00 0.00 0.00 80 1018.0
20260904034550 27 0 0.0 0.0 0.00 0.00 0.00 80 1018.1
20260904034024 27 0 0.0 0.0 0.00 0.00 0.00 79 1018.2
20260904033524 27 0 0.0 0.0 0.00 0.00 0.00 79 1018.1
20260904033048 27 0 0.0 0.0 0.00 0.00 0.00 80 1018.1
20260904032524 27 0 0.0 0.0 0.00 0.00 0.00 79 1018.0
20260904032023 27 0 0.0 0.0 0.00 0.00 0.00 79 1018.1
20260904031543 27 0 0.0 0.0 0.00 0.00 0.00 79 1018.1
20260904031022 27 0 0.0 0.0 0.00 0.00 0.00 78 1018.1
20260904030525 27 0 0.0 0.0 0.00 0.00 0.00 78 1018.1
20260904030044 27 0 0.0 0.0 0.00 0.00 0.00 78 1018.1
20260904025524 27 0 0.0 0.0 0.00 0.00 0.00 77 1018.2
20260904025022 27 0 0.0 0.0 0.00 0.00 0.00 77 1018.1
20260904024548 27 0 0.0 0.0 0.00 0.00 0.00 77 1018.1
20260904024024 27 0 0.0 0.0 0.00 0.00 0.00 77 1018.2
20260904023526 28 0 0.0 0.0 0.00 0.00 0.00 76 1018.1
20260904023057 28 0 0.0 0.0 0.00 0.00 0.00 75 1018.1
20260904022525 28 0 0.0 0.0 0.00 0.00 0.00 75 1018.1
20260904022024 28 0 0.0 0.0 0.00 0.00 0.00 75 1018.0
20260904021545 28 0 0.0 0.0 0.00 0.00 0.00 74 1018.0
20260904021022 28 0 0.0 0.0 0.00 0.00 0.00 74 1017.9
20260904020524 28 0 0.0 0.0 0.00 0.00 0.00 74 1017.9
20260904020042 28 0 0.0 0.0 0.00 0.00 0.00 73 1017.9
20260904015525 28 0 0.0 0.0 0.00 0.00 0.00 73 1017.9
20260904015025 28 0 0.0 0.0 0.00 0.00 0.00 73 1017.9
20260904014557 28 0 0.0 0.0 0.00 0.00 0.00 72 1017.6
20260904014021 28 0 0.0 0.0 0.00 0.00 0.00 71 1017.5
20260904013524 29 0 0.0 0.0 0.00 0.00 0.00 71 1017.7
20260904013047 29 0 0.0 0.0 0.00 0.00 0.00 71 1017.6
20260904012527 29 0 0.0 0.0 0.00 0.00 0.00 71 1017.4
20260904012024 29 0 0.0 0.0 0.00 0.00 0.00 71 1017.4
20260904011545 29 0 0.0 0.0 0.00 0.00 0.00 71 1017.4
20260904011024 29 0 0.0 0.0 0.00 0.00 0.00 70 1017.3
20260904010523 30 0 0.0 0.0 0.00 0.00 0.00 70 1017.1
20260904010051 30 0 0.0 0.0 0.00 0.00 0.00 69 1017.1
20260904005523 30 0 0.0 0.0 0.00 0.00 0.00 69 1016.9
20260904005022 30 0 0.0 0.0 0.00 0.00 0.00 69 1016.8
20260904004546 30 0 0.0 0.0 0.00 0.00 0.00 69 1016.8
20260904004023 30 0 0.0 0.0 0.00 0.00 0.00 69 1016.6
20260904003523 30 0 0.0 0.0 0.00 0.00 0.00 69 1016.5
20260904003043 30 0 0.0 0.0 0.00 0.00 0.00 68 1016.4
20260904002525 31 0 0.0 0.0 0.00 0.00 0.00 68 1016.3
20260904002024 31 0 0.0 0.0 0.00 0.00 0.00 68 1016.2
20260904001540 31 0 0.0 0.0 0.00 0.00 0.00 67 1016.2
20260904001023 31 0 0.0 0.0 0.00 0.00 0.00 67 1016.1
20260904000526 31 0 0.0 0.0 0.00 0.00 0.00 66 1016.1
20260904000050 31 0 0.0 0.0 0.00 0.00 0.00 66 1016.1
20260903235523 32 0 0.0 0.0 0.00 0.00 0.00 65 1015.9
20260903235023 32 0 0.0 0.0 0.00 0.00 0.00 65 1015.9
20260903234544 32 0 0.0 0.0 0.00 0.00 0.00 64 1015.8
20260903234022 32 0 0.0 0.0 0.00 0.00 0.00 64 1015.8
20260903233525 32 0 0.0 0.0 0.00 0.00 0.00 63 1015.8
20260903233050 32 0 0.0 0.0 0.00 0.00 0.00 63 1015.8
20260903232523 33 0 0.0 0.0 0.00 0.00 0.00 62 1015.8
20260903232025 33 0 0.0 0.0 0.00 0.00 0.00 62 1015.8
20260903231548 33 0 0.0 0.0 0.00 0.00 0.00 61 1015.8
20260903231023 33 0 0.0 0.0 0.00 0.00 0.00 60 1015.9
20260903230528 33 0 0.0 0.0 0.00 0.00 0.00 60 1016.0
20260903230051 33 0 0.0 0.0 0.00 0.00 0.00 60 1015.9
20260903225526 34 0 0.0 0.0 0.00 0.00 0.00 59 1015.9
20260903225023 34 0 0.0 0.0 0.00 0.00 0.00 58 1015.9
20260903224605 34 0 0.0 0.0 0.00 0.00 0.00 58 1015.9
20260903224025 35 0 0.0 0.0 0.00 0.00 0.00 57 1015.9
20260903223525 35 0 0.0 0.0 0.00 0.00 0.00 57 1015.9
20260903223047 35 0 0.0 0.0 0.00 0.00 0.00 56 1015.9
20260903222525 35 0 0.0 0.0 0.00 0.00 0.00 56 1015.8
20260903222025 35 0 0.0 0.0 0.00 0.00 0.00 55 1015.7
20260903221544 35 0 0.0 0.0 0.00 0.00 0.00 55 1015.8
20260903221022 35 0 0.0 0.0 0.00 0.00 0.00 55 1015.8
20260903220522 35 0 0.0 0.0 0.00 0.00 0.00 55 1015.8
20260903220047 35 0 0.0 0.0 0.00 0.00 0.00 56 1015.9
20260903215524 35 0 0.0 0.0 0.00 0.00 0.00 55 1015.9
20260903215025 36 0 0.0 0.0 0.00 0.00 0.00 54 1015.8
20260903214605 36 0 0.0 0.0 0.00 0.00 0.00 55 1015.9
20260903214024 36 0 0.0 0.0 0.00 0.00 0.00 54 1016.0
20260903213524 36 0 0.0 0.0 0.00 0.00 0.00 54 1015.8
20260903213058 36 0 0.0 0.0 0.00 0.00 0.00 53 1015.9
20260903212526 36 0 0.0 0.0 0.00 0.00 0.00 53 1015.9
20260903212026 36 0 0.0 0.0 0.00 0.00 0.00 53 1015.9
20260903211544 36 0 0.0 0.0 0.00 0.00 0.00 53 1015.9
20260903211021 36 0 0.0 0.0 0.00 0.00 0.00 53 1016.0
20260903210522 36 0 0.0 0.0 0.00 0.00 0.00 53 1015.9
20260903210103 36 0 0.0 0.0 0.00 0.00 0.00 53 1015.9
20260903205526 36 0 0.0 0.0 0.00 0.00 0.00 53 1016.0
20260903205023 36 0 0.0 0.0 0.00 0.00 0.00 55 1015.9
20260903204548 35 0 0.0 0.0 0.00 0.00 0.00 57 1015.9
20260903204022 35 0 0.0 0.0 0.00 0.00 0.00 55 1015.8
20260903203523 35 0 0.0 0.0 0.00 0.00 0.00 55 1015.9
20260903203104 35 0 0.0 0.0 0.00 0.00 0.00 54 1016.0
20260903202523 35 0 0.0 0.0 0.00 0.00 0.00 55 1016.1
20260903202021 35 0 0.0 0.0 0.00 0.00 0.00 55 1016.2
20260903201547 35 0 0.0 0.0 0.00 0.00 0.00 55 1016.2